STARLINK-36189, 67010

Orbit data source: Space-Track

STARLINK-36189, 67010 is a payload satellite owned by SpaceX/Seattle (US) in LEO that was launched on Wed, 10 Dec 2025 UTC via an FALCON 9 launch vehicle from the Air Force Western Test Range (AFWTR). Payload-class satellites include a variety of spacecraft equipped with specific instruments for various scientific and technological missions. These include communications satellites like Starlink; space stations such as the ISS; scientific satellites like the Hubble; Earth observation satellites from companies like Planet Labs, Umbra, and HawkEye 360; GPS; miniature CubeSats for education and research; and military/defense satellites.

Loading next visibility...
Identifier
67010, 2025-293H
Orbit
LEO
Country
Flag of USUS
Related business
Manufacturer
SpaceX/Seattle
Mission
Operational Commercial Communications
Bus & Motor
STARLINK V2MO, Unknown motor
Mass
575 kg wet, ~530 kg dry
Launch date (UTC)
2025-12-10 (6 months ago)
Launch vehicle
FALCON 9
Launch site
Air Force Western Test Range (AFWTR)
Object type
Payload
Rocket body
Debris
Shape & HBR
Box + 2 Pan, 17.7 m
Radar Cross Section
36.964 m², Large (>1 m²)

Expand to show TLE details & history
Last TLE update: 10 hours ago

TLE from 10 hours ago
0 STARLINK-36189
1 67010U 25293H   26171.44270257  .00003019  00000-0  26063-3 0  9996
2 67010  70.0007 195.2006 0004132 265.9182  94.1505 14.98337761 30282
Epoch: 2026-06-20T10:37Z
TLE epoch observation values (Epoch: 2026-06-20T10:37:29.502Z)
Latitude
0.00002°
Longitude
127.17042°
Altitude
574.665 km
Speed
7.574 km/s
True Right ascension
13h 00m 48s
True Declination
0° 00' 00"
Sunlit
Object was in daylight at epoch
Visualization orbit readout
Latitude
Unknown
Longitude
Unknown
Altitude
Unknown
Speed
Unknown
Apparent Right ascension
Unknown
Apparent Declination
Unknown
Sunlit
N/A
Visualization observer readout
Local Sidereal Time
07:12:10
Azimuth
Unknown
Elevation
Unknown
Doppler factor
Unknown
Orbital elements
Apogee altitude
572.851 km
Perigee altitude
567.109 km
Semi-major axis
6,948.117 km
Eccentricity
0.00041
Inclination
70.0007°
RAAN
195.2006°
Arg. of periapsis
265.9182°
True anomaly
94.19772°
Mean anomaly
94.1505°
Eccentric anomaly
94.17411°
Mean motion
3.74751 °/min
Orbital period
96.06 mins
BSTAR
0.00026063
Loading maneuver chart data...
Computing Atmospheric mass density...
Loading historical data...
Loading historical data...
Loading historical data...
Loading historical data...
Loading historical data...
Loading historical data...
Loading historical data...

Documentation

Showing up to 5 results
|